When you browse on this site, cookies collect data to enhance your experience and personalize the content and advertising you see.
Visit our Privacy Policy to learn more. By continuing to use the site, you agree to this use of cookies and data.
EN

Hourly Weather Smorodinovka

Today, 19 September, Saturday

Time Temperature Precipitation Wind Pressure Humidity
00:00 +10°C° 0 mm 4 mps 724 mmHg 58%
01:00 +8°C° 0 mm 4 mps 723 mmHg 58%
02:00 +8°C° 0 mm 5 mps 723 mmHg 57%
03:00 +8°C° 0 mm 5 mps 722 mmHg 56%
04:00 +8°C° 0 mm 5 mps 722 mmHg 55%
05:00 +7°C° 0 mm 5 mps 721 mmHg 56%
06:00 +7°C° 0 mm 6 mps 721 mmHg 56%
07:00 +7°C° 0 mm 6 mps 720 mmHg 57%
08:00 +9°C° 0 mm 7 mps 720 mmHg 54%
09:00 +10°C° 0 mm 7 mps 720 mmHg 50%
10:00 +11°C° 0 mm 8 mps 719 mmHg 47%
11:00 +11°C° 0 mm 8 mps 719 mmHg 48%
12:00 +11°C° 0 mm 8 mps 718 mmHg 48%
13:00 +11°C° 0 mm 7 mps 718 mmHg 48%
14:00 +10°C° 0.3 mm 8 mps 717 mmHg 59%
15:00 +9°C° 0.3 mm 8 mps 717 mmHg 70%
16:00 +7°C° 0.3 mm 9 mps 716 mmHg 81%
17:00 +6°C° 0.5 mm 9 mps 715 mmHg 84%
18:00 +6°C° 0.5 mm 9 mps 715 mmHg 87%
19:00 +6°C° 0.5 mm 9 mps 714 mmHg 89%
20:00 +6°C° 1.3 mm 8 mps 714 mmHg 88%
21:00 +6°C° 1.3 mm 8 mps 713 mmHg 87%
22:00 +6°C° 1.3 mm 7 mps 712 mmHg 86%
23:00 +7°C° 0.4 mm 6 mps 711 mmHg 87%

Tomorrow, 20 September, Sunday

Time Temperature Precipitation Wind Pressure Humidity
00:00 +7°C° 0.4 mm 5 mps 710 mmHg 88%
01:00 +6°C° 0.4 mm 4 mps 709 mmHg 89%
02:00 +6°C° 1.2 mm 4 mps 708 mmHg 91%
03:00 +7°C° 1.2 mm 3 mps 708 mmHg 93%
04:00 +7°C° 1.2 mm 3 mps 707 mmHg 95%
05:00 +7°C° 2 mm 3 mps 707 mmHg 96%
06:00 +7°C° 2 mm 3 mps 707 mmHg 96%
07:00 +7°C° 2 mm 3 mps 706 mmHg 97%
08:00 +5°C° 1.7 mm 5 mps 707 mmHg 95%
09:00 +4°C° 1.7 mm 7 mps 707 mmHg 92%
10:00 +2°C° 1.7 mm 9 mps 708 mmHg 90%
11:00 +2°C° 0.2 mm 9 mps 709 mmHg 87%
12:00 +3°C° 0.2 mm 9 mps 710 mmHg 83%
13:00 +4°C° 0.2 mm 8 mps 711 mmHg 80%
14:00 +4°C° 0 mm 8 mps 712 mmHg 78%
15:00 +4°C° 0 mm 7 mps 712 mmHg 76%
16:00 +5°C° 0 mm 7 mps 713 mmHg 73%
17:00 +4°C° 0 mm 6 mps 714 mmHg 77%
18:00 +4°C° 0 mm 4 mps 714 mmHg 80%
19:00 +3°C° 0 mm 3 mps 714 mmHg 83%
20:00 +3°C° 0.1 mm 3 mps 715 mmHg 86%
21:00 +3°C° 0.1 mm 4 mps 715 mmHg 88%
22:00 +3°C° 0.1 mm 4 mps 715 mmHg 91%
23:00 +1°C° 0 mm 4 mps 716 mmHg 92%

Day after tomorrow, 21 September, Monday

Time Temperature Precipitation Wind Pressure Humidity
00:00 +1°C° 0 mm 4 mps 716 mmHg 93%
01:00 +1°C° 0 mm 4 mps 716 mmHg 94%
02:00 +1°C° 0 mm 4 mps 716 mmHg 92%
03:00 +3°C° 0 mm 4 mps 717 mmHg 90%
04:00 +3°C° 0 mm 4 mps 717 mmHg 88%
05:00 +2°C° 0 mm 5 mps 718 mmHg 88%
06:00 +2°C° 0 mm 5 mps 718 mmHg 88%
07:00 +2°C° 0 mm 5 mps 718 mmHg 88%
08:00 +2°C° 0 mm 6 mps 719 mmHg 84%
09:00 +2°C° 0 mm 6 mps 720 mmHg 80%
10:00 +3°C° 0 mm 6 mps 720 mmHg 77%
11:00 +3°C° 0.1 mm 6 mps 720 mmHg 74%
12:00 +4°C° 0.1 mm 6 mps 721 mmHg 71%
13:00 +4°C° 0.1 mm 6 mps 721 mmHg 69%
14:00 +4°C° 0.1 mm 6 mps 721 mmHg 70%
15:00 +4°C° 0.1 mm 7 mps 721 mmHg 72%
16:00 +4°C° 0.1 mm 7 mps 721 mmHg 73%
17:00 +4°C° 0 mm 6 mps 721 mmHg 74%
18:00 +4°C° 0 mm 6 mps 721 mmHg 75%
19:00 +3°C° 0 mm 5 mps 721 mmHg 76%
20:00 +4°C° 0 mm 6 mps 720 mmHg 77%
21:00 +4°C° 0 mm 6 mps 720 mmHg 79%
22:00 +4°C° 0 mm 6 mps 719 mmHg 80%
23:00 +4°C° 0.3 mm 7 mps 719 mmHg 83%

22 September, Tuesday

Time Temperature Precipitation Wind Pressure Humidity
00:00 +4°C° 0.3 mm 8 mps 718 mmHg 85%
01:00 +3°C° 0.3 mm 9 mps 717 mmHg 87%
02:00 +3°C° 0.3 mm 9 mps 717 mmHg 87%
03:00 +4°C° 0.3 mm 8 mps 717 mmHg 87%
04:00 +4°C° 0.3 mm 7 mps 718 mmHg 86%
05:00 +4°C° 0 mm 7 mps 718 mmHg 88%
06:00 +3°C° 0 mm 6 mps 719 mmHg 89%
07:00 +2°C° 0 mm 6 mps 719 mmHg 90%
08:00 +4°C° 0 mm 6 mps 720 mmHg 83%
09:00 +5°C° 0 mm 7 mps 721 mmHg 75%
10:00 +6°C° 0 mm 7 mps 722 mmHg 68%
11:00 +6°C° 0 mm 7 mps 722 mmHg 66%
12:00 +6°C° 0 mm 7 mps 723 mmHg 65%
13:00 +8°C° 0 mm 7 mps 723 mmHg 63%
14:00 +8°C° 0 mm 7 mps 724 mmHg 63%
15:00 +8°C° 0 mm 6 mps 724 mmHg 64%
16:00 +7°C° 0 mm 6 mps 724 mmHg 64%
17:00 +6°C° 0 mm 4 mps 725 mmHg 70%
18:00 +5°C° 0 mm 3 mps 725 mmHg 75%
19:00 +6°C° 0 mm 1 mps 726 mmHg 81%
20:00 +5°C° 0 mm 1 mps 726 mmHg 82%
21:00 +4°C° 0 mm 2 mps 726 mmHg 83%
22:00 +4°C° 0 mm 2 mps 726 mmHg 85%
23:00 +4°C° 0 mm 2 mps 726 mmHg 85%

23 September, Wednesday

Time Temperature Precipitation Wind Pressure Humidity
00:00 +4°C° 0 mm 2 mps 726 mmHg 86%
01:00 +3°C° 0 mm 3 mps 726 mmHg 86%
02:00 +3°C° 0 mm 3 mps 726 mmHg 85%
03:00 +3°C° 0 mm 4 mps 726 mmHg 84%
04:00 +3°C° 0 mm 4 mps 726 mmHg 83%
05:00 +3°C° 0 mm 5 mps 726 mmHg 81%
06:00 +3°C° 0 mm 5 mps 726 mmHg 79%
07:00 +4°C° 0 mm 6 mps 726 mmHg 77%
08:00 +5°C° 0 mm 6 mps 726 mmHg 77%
09:00 +8°C° 0 mm 7 mps 726 mmHg 76%
10:00 +10°C° 0 mm 8 mps 726 mmHg 76%
11:00 +11°C° 0 mm 8 mps 726 mmHg 74%
12:00 +13°C° 0 mm 8 mps 726 mmHg 72%
13:00 +15°C° 0 mm 8 mps 726 mmHg 70%
14:00 +15°C° 0 mm 7 mps 726 mmHg 70%
15:00 +15°C° 0 mm 7 mps 727 mmHg 71%
16:00 +15°C° 0 mm 6 mps 727 mmHg 71%
17:00 +14°C° 0 mm 5 mps 727 mmHg 77%
18:00 +13°C° 0 mm 4 mps 727 mmHg 83%
19:00 +11°C° 0 mm 3 mps 727 mmHg 89%
20:00 +11°C° 0 mm 3 mps 727 mmHg 90%
21:00 +10°C° 0 mm 3 mps 727 mmHg 91%
22:00 +10°C° 0 mm 3 mps 727 mmHg 92%
23:00 +10°C° 0 mm 2 mps 728 mmHg 92%

24 September, Thursday

Time Temperature Precipitation Wind Pressure Humidity
00:00 +9°C° 0 mm 2 mps 728 mmHg 92%
01:00 +9°C° 0 mm 2 mps 728 mmHg 92%
02:00 +9°C° 0 mm 2 mps 728 mmHg 92%
03:00 +9°C° 0 mm 2 mps 728 mmHg 92%
04:00 +8°C° 0 mm 2 mps 729 mmHg 92%
05:00 +8°C° 0 mm 2 mps 729 mmHg 92%
06:00 +8°C° 0 mm 2 mps 729 mmHg 92%
07:00 +8°C° 0 mm 2 mps 729 mmHg 92%
08:00 +10°C° 0 mm 2 mps 730 mmHg 86%
09:00 +12°C° 0 mm 3 mps 730 mmHg 81%
10:00 +14°C° 0 mm 3 mps 730 mmHg 75%
11:00 +16°C° 0 mm 3 mps 730 mmHg 71%
12:00 +17°C° 0 mm 3 mps 731 mmHg 67%
13:00 +18°C° 0 mm 3 mps 731 mmHg 63%
14:00 +18°C° 0 mm 3 mps 731 mmHg 64%
15:00 +18°C° 0 mm 3 mps 731 mmHg 65%
16:00 +18°C° 0 mm 2 mps 731 mmHg 66%
17:00 +17°C° 0 mm 2 mps 731 mmHg 71%
18:00 +15°C° 0 mm 2 mps 731 mmHg 77%
19:00 +14°C° 0 mm 1 mps 731 mmHg 83%
20:00 +13°C° 0 mm 1 mps 731 mmHg 84%
21:00 +13°C° 0 mm 1 mps 731 mmHg 85%
22:00 +12°C° 0 mm 1 mps 731 mmHg 86%
23:00 +12°C° 0 mm 1 mps 731 mmHg 86%
Show more